Skynet4D Del rocket - Orbit

View from above orbital plane
View from above orbital plane
View from above satellite
View from above satellite

Ground track
Ground track

The orbit data is extracted from the following two-line orbital elements,

1 25135U 98002B   13168.97727206  .00000123  00000-0  12145-4 0   303
2 25135 026.8847 329.1410 0356972 022.5626 127.0530 13.62199380769246
Epoch (UTC): 17 June 2013 23:27:16
Eccentricity: 0.0356972
inclination: 26.8847°
perigee height: 763 km
apogee height: 1292 km
right ascension of ascending node: 329.1410°
argument of perigee: 22.5626°
revolutions per day: 13.62199380
mean anomaly at epoch: 127.0530°
orbit number at epoch: 76924

The dashed part of the orbit path shows where the satellite is in the earth's shadow,  

Developed and maintained by Chris Peat, Heavens-Above GmbH. Please read the updated FAQ before sending e-mail. Imprint. DLR